Location: F M Corners
(41.2198°N, 80.4709°W)
Time: 18:06:56
(UTC+00:00)

FengYun 1-2 T - Pass Details

Date: 29 October 2020
Orbit: 846 x 882 km, 98.7° (Epoch: 24 November)

Event Time Altitude Azimuth Distance (km) Brightness Sun altitude
Rises 22:55:34 0° 158° (SSE) 3,467 7.3 -7.2°
Reaches altitude 10° 22:57:58 10° 157° (SSE) 2,531 6.6 -7.7°
Maximum altitude 23:03:35 73° 73° (ENE) 922 4.2 -8.7°
Drops below altitude 10° 23:09:12 10° 351° (N) 2,533 6.7 -9.7°
Sets 23:11:35 0° 349° (N) 3,470 7.4 -10.2°
